Zurück zum Katalog

COSMOS 917 DEB

AktivHEO
NORAD 35505·DEBRIS·🇷🇺 Russia

Gestartet Jun 16, 1977 von Plesetsk Cosmodrome

Loading…

Nächste Überflüge (nächste 24 Stunden)

TLE

AktuellSource: Space-Track

Epoche: Sep 14, 2026, 03:39 UTC

1 35505U 77047S   26257.15211072  .00000432  00000-0  10802-2 0  9996
2 35505  59.9327 203.7101 7455310  66.5771 351.9866  2.01810819147691

Verfolge COSMOS 917 DEB in Echtzeit mit AllMySat

Download on the App Store